STARLINK-34533, 64715

Orbit data source: Space-Track

STARLINK-34533, 64715 is a payload satellite owned by SpaceX/Seattle (US) in LEO that was launched on Sat, 28 Jun 2025 UTC via an FALCON 9 launch vehicle from the Air Force Western Test Range (AFWTR). Payload-class satellites include a variety of spacecraft equipped with specific instruments for various scientific and technological missions. These include communications satellites like Starlink; space stations such as the ISS; scientific satellites like the Hubble; Earth observation satellites from companies like Planet Labs, Umbra, and HawkEye 360; GPS; miniature CubeSats for education and research; and military/defense satellites.

Loading next visibility...
Identifier
64715, 2025-142V
Orbit
LEO
Country
Flag of USUS
Related business
Manufacturer
SpaceX/Seattle
Mission
Operational Commercial Communications
Bus & Motor
STARLINK V2MO, Unknown motor
Mass
575 kg wet, ~530 kg dry
Launch date (UTC)
2025-06-28 (1 year ago)
Launch vehicle
FALCON 9
Launch site
Air Force Western Test Range (AFWTR)
Object type
Payload
Rocket body
Debris
Shape & HBR
Box + 2 Pan, 17.7 m
Radar Cross Section
36.964 m², Large (>1 m²)

Expand to show TLE details & history
Last TLE update: 7 hours ago

TLE from 7 hours ago
0 STARLINK-34533
1 64715U 25142V   26207.63334195  .00004850  00000-0  41387-3 0  9991
2 64715  70.0027 324.1100 0003404 266.9844  93.0926 14.98340524 60276
Epoch: 2026-07-26T15:12Z
TLE epoch observation values (Epoch: 2026-07-26T15:12:00.744Z)
Latitude
0.00001°
Longitude
151.77844°
Altitude
574.576 km
Speed
7.574 km/s
True Right ascension
21h 36m 26s
True Declination
0° 00' 00"
Sunlit
Object was in full shadow at epoch
Visualization orbit readout
Latitude
Unknown
Longitude
Unknown
Altitude
Unknown
Speed
Unknown
Apparent Right ascension
Unknown
Apparent Declination
Unknown
Sunlit
N/A
Visualization observer readout
Local Sidereal Time
11:05:00
Azimuth
Unknown
Elevation
Unknown
Doppler factor
Unknown
Orbital elements
Apogee altitude
572.336 km
Perigee altitude
567.606 km
Semi-major axis
6,948.108 km
Eccentricity
0.00034
Inclination
70.0027°
RAAN
324.11°
Arg. of periapsis
266.9844°
True anomaly
93.13155°
Mean anomaly
93.0926°
Eccentric anomaly
93.11207°
Mean motion
3.74751 °/min
Orbital period
96.06 mins
BSTAR
0.00041387
Loading maneuver chart data...
Computing Atmospheric mass density...
Loading historical data...
Loading historical data...
Loading historical data...
Loading historical data...
Loading historical data...
Loading historical data...
Loading historical data...

Documentation

Showing up to 5 results
|